FW4096 Weather Reports


time (UTC)temp
C
wind
direction
speed
KPH
gust
KPH
rain 1hr
cm
rain 24hr
cm
rain mn
cm
humidity
%
barometer
mb
20260508110004 13 30 16.1 27.4 0.00 0.00 0.00 42 1027.1
20260508105504 13 15 19.3 37.0 0.00 0.00 0.00 44 1027.1
20260508105004 13 17 19.3 37.0 0.00 0.00 0.00 44 1027.2
20260508104607 12 24 16.1 37.0 0.00 0.00 0.00 45 1027.2
20260508104004 12 21 16.1 33.8 0.00 0.00 0.00 44 1027.2
20260508103606 12 20 17.7 33.8 0.00 0.00 0.00 46 1027.1
20260508103004 12 36 14.5 27.4 0.00 0.00 0.00 45 1027.1
20260508102607 12 42 14.5 27.4 0.00 0.00 0.00 44 1027.0
20260508102004 12 39 14.5 30.6 0.00 0.00 0.00 43 1027.0
20260508101503 12 36 12.9 30.6 0.00 0.00 0.00 43 1027.1
20260508101003 12 44 14.5 27.4 0.00 0.00 0.00 46 1027.2
20260508100504 12 49 14.5 27.4 0.00 0.00 0.00 44 1027.2
20260508100004 12 49 12.9 29.0 0.00 0.00 0.00 46 1027.1
20260508095503 12 56 12.9 30.6 0.00 0.00 0.00 45 1027.3
20260508095003 11 57 14.5 30.6 0.00 0.00 0.00 48 1027.4
20260508094503 11 52 14.5 27.4 0.00 0.00 0.00 46 1027.3
20260508094003 11 52 16.1 29.0 0.00 0.00 0.00 48 1027.3
20260508093503 11 50 16.1 29.0 0.00 0.00 0.00 46 1027.2
20260508093003 12 34 16.1 35.4 0.00 0.00 0.00 45 1027.1
20260508092503 12 25 17.7 35.4 0.00 0.00 0.00 46 1027.1
20260508092003 12 26 14.5 25.7 0.00 0.00 0.00 46 1027.0
20260508091606 12 40 16.1 33.8 0.00 0.00 0.00 47 1026.7
20260508091003 11 52 17.7 33.8 0.00 0.00 0.00 45 1026.7
20260508090503 11 49 16.1 32.2 0.00 0.00 0.00 45 1026.8
20260508090003 11 48 16.1 32.2 0.00 0.00 0.00 46 1026.8
20260508085503 11 49 12.9 29.0 0.00 0.00 0.00 44 1026.7
20260508085003 12 50 11.3 27.4 0.00 0.00 0.00 47 1026.8
20260508084606 11 49 14.5 27.4 0.00 0.00 0.00 48 1026.7
20260508084003 11 48 14.5 29.0 0.00 0.00 0.00 47 1026.9
20260508083607 11 50 14.5 29.0 0.00 0.00 0.00 46 1026.9
20260508083107 12 52 11.3 27.4 0.00 0.00 0.00 47 1026.7
20260508082504 12 40 12.9 30.6 0.00 0.00 0.00 47 1026.9
20260508082004 11 37 14.5 30.6 0.00 0.00 0.00 47 1026.8
20260508081504 11 36 16.1 32.2 0.00 0.00 0.00 48 1026.9
20260508081004 11 41 16.1 32.2 0.00 0.00 0.00 48 1026.8
20260508080504 11 51 16.1 32.2 0.00 0.00 0.00 47 1026.8
20260508080004 11 51 12.9 32.2 0.00 0.00 0.00 45 1026.7
20260508075504 11 43 12.9 29.0 0.00 0.00 0.00 50 1026.7
20260508075004 11 49 14.5 29.0 0.00 0.00 0.00 47 1026.7
20260508074504 11 60 11.3 29.0 0.00 0.00 0.00 46 1026.6
20260508074004 11 64 11.3 27.4 0.00 0.00 0.00 49 1026.7
20260508073504 10 53 14.5 27.4 0.00 0.00 0.00 50 1026.7
20260508073004 10 52 16.1 33.8 0.00 0.00 0.00 48 1026.5
20260508072607 10 50 17.7 33.8 0.00 0.00 0.00 48 1026.5
20260508072004 11 45 14.5 30.6 0.00 0.00 0.00 47 1026.5
20260508071607 11 47 12.9 27.4 0.00 0.00 0.00 49 1026.4
20260508071107 10 42 12.9 22.5 0.00 0.00 0.00 51 1026.4
20260508070503 10 48 14.5 30.6 0.00 0.00 0.00 49 1026.4
20260508070004 10 53 12.9 30.6 0.00 0.00 0.00 51 1026.4
20260508065505 10 56 12.9 27.4 0.00 0.00 0.00 53 1026.4
20260508065003 10 54 14.5 27.4 0.00 0.00 0.00 53 1026.4
20260508064607 10 46 12.9 25.7 0.00 0.00 0.00 55 1026.4
20260508064003 10 43 11.3 25.7 0.00 0.00 0.00 54 1026.5
20260508063503 10 46 12.9 25.7 0.00 0.00 0.00 55 1026.5
20260508063003 10 45 12.9 24.1 0.00 0.00 0.00 54 1026.4
20260508062504 10 50 11.3 27.4 0.00 0.00 0.00 56 1026.3
20260508062004 10 53 11.3 27.4 0.00 0.00 0.00 54 1026.1
20260508061503 9 53 11.3 25.7 0.00 0.00 0.00 60 1026.0
20260508061003 9 51 12.9 25.7 0.00 0.00 0.00 58 1026.1
20260508060607 9 51 14.5 25.7 0.00 0.00 0.00 57 1026.1
20260508060106 9 47 12.9 25.7 0.00 0.00 0.00 58 1026.2
20260508055606 9 47 12.9 29.0 0.00 0.00 0.00 58 1026.2
20260508055004 9 49 9.7 20.9 0.00 0.00 0.00 59 1026.2
20260508054503 8 48 11.3 24.1 0.00 0.00 0.00 61 1026.2
20260508054003 8 47 11.3 24.1 0.00 0.00 0.00 60 1026.1
20260508053504 8 52 11.3 24.1 0.00 0.00 0.00 60 1026.0
20260508053003 8 53 11.3 25.7 0.00 0.00 0.00 61 1025.9
20260508052503 8 48 12.9 25.7 0.00 0.00 0.00 61 1025.9
20260508052003 8 50 12.9 22.5 0.00 0.00 0.00 62 1025.8
20260508051503 8 55 11.3 22.5 0.00 0.00 0.00 63 1025.6
20260508051003 8 55 11.3 24.1 0.00 0.00 0.00 66 1025.6
20260508050504 7 52 12.9 24.1 0.00 0.00 0.00 65 1025.6
20260508050003 7 50 11.3 24.1 0.00 0.00 0.00 66 1025.4
20260508045606 7 50 11.3 22.5 0.00 0.00 0.00 66 1025.4
20260508045003 7 52 9.7 22.5 0.00 0.00 0.00 67 1025.5
20260508044606 7 52 8.0 20.9 0.00 0.00 0.00 67 1025.4
20260508044003 7 53 8.0 17.7 0.00 0.00 0.00 68 1025.2
20260508043504 7 53 6.4 20.9 0.00 0.00 0.00 68 1025.3
20260508043004 7 58 4.8 20.9 0.00 0.00 0.00 68 1025.3
20260508042504 7 60 4.8 14.5 0.00 0.00 0.00 70 1025.1
20260508042004 6 53 6.4 14.5 0.00 0.00 0.00 70 1025.1
20260508041504 6 53 6.4 16.1 0.00 0.00 0.00 71 1025.1
20260508041004 6 55 8.0 22.5 0.00 0.00 0.00 72 1025.1
20260508040504 6 51 8.0 22.5 0.00 0.00 0.00 72 1025.0
20260508040004 6 48 8.0 19.3 0.00 0.00 0.00 73 1024.9
20260508035504 5 46 6.4 19.3 0.00 0.00 0.00 74 1024.8
20260508035004 5 47 6.4 16.1 0.00 0.00 0.00 74 1024.6
20260508034504 5 48 6.4 16.1 0.00 0.00 0.00 75 1024.6
20260508034004 5 48 6.4 14.5 0.00 0.00 0.00 75 1024.5
20260508033504 5 50 6.4 14.5 0.00 0.00 0.00 75 1024.4
20260508033004 5 50 4.8 14.5 0.00 0.00 0.00 76 1024.4
20260508032503 5 47 4.8 14.5 0.00 0.00 0.00 76 1024.2
20260508032004 5 49 4.8 11.3 0.00 0.00 0.00 76 1024.3
20260508031504 5 49 4.8 14.5 0.00 0.00 0.00 76 1024.2
20260508031005 5 48 4.8 14.5 0.00 0.00 0.00 77 1024.1
20260508030503 4 42 6.4 12.9 0.00 0.00 0.00 77 1024.1
20260508030004 4 39 4.8 9.7 0.00 0.00 0.00 77 1024.1
20260508025607 4 42 4.8 9.7 0.00 0.00 0.00 77 1024.1
20260508025004 4 33 4.8 12.9 0.00 0.00 0.00 77 1023.9
20260508024504 4 29 4.8 12.9 0.00 0.00 0.00 77 1023.9
20260508024004 4 27 6.4 12.9 0.00 0.00 0.00 77 1023.9
20260508023504 4 27 6.4 14.5 0.00 0.00 0.00 77 1023.7
20260508023003 4 35 4.8 14.5 0.00 0.00 0.00 77 1023.8
20260508022503 4 30 6.4 12.9 0.00 0.00 0.00 77 1023.6
20260508022004 4 20 6.4 12.9 0.00 0.00 0.00 77 1023.5
20260508021606 4 20 6.4 14.5 0.00 0.00 0.00 77 1023.5
20260508021003 4 24 6.4 14.5 0.00 0.00 0.00 77 1023.3
20260508020503 4 22 6.4 14.5 0.00 0.00 0.00 77 1023.3
20260508020106 4 23 6.4 14.5 0.00 0.00 0.00 77 1023.3
20260508015503 4 22 6.4 16.1 0.00 0.00 0.00 76 1023.2
20260508015003 4 20 6.4 16.1 0.00 0.00 0.00 76 1023.2
20260508014504 4 20 6.4 12.9 0.00 0.00 0.00 76 1023.2
20260508014004 4 25 6.4 12.9 0.00 0.00 0.00 76 1023.1
20260508013606 4 21 6.4 12.9 0.00 0.00 0.00 76 1023.1
20260508013003 4 15 8.0 14.5 0.00 0.00 0.00 76 1023.0
20260508012607 4 20 6.4 14.5 0.00 0.00 0.00 76 1023.0
20260508012106 4 16 6.4 14.5 0.00 0.00 0.00 76 1022.9
20260508011606 5 12 8.0 14.5 0.00 0.00 0.00 75 1022.9
20260508011107 5 11 8.0 16.1 0.00 0.00 0.00 75 1023.0
20260508010503 5 10 6.4 16.1 0.00 0.00 0.00 74 1022.8
20260508010003 5 15 8.0 16.1 0.00 0.00 0.00 74 1022.8
20260508005606 5 16 8.0 16.1 0.00 0.00 0.00 73 1022.8
20260508005004 5 19 6.4 14.5 0.00 0.00 0.00 72 1022.8
20260508004506 5 25 8.0 16.1 0.00 0.00 0.00 72 1022.8
20260508004108 5 24 6.4 16.1 0.00 0.00 0.00 72 1022.7
20260508003504 5 19 8.0 16.1 0.00 0.00 0.00 72 1022.7
20260508003005 5 19 8.0 16.1 0.00 0.00 0.00 71 1022.7
20260508002607 5 16 8.0 16.1 0.00 0.00 0.00 71 1022.5
20260508002107 5 17 8.0 14.5 0.00 0.00 0.00 70 1022.5
20260508001504 5 16 6.4 12.9 0.00 0.00 0.00 70 1022.5
20260508001004 5 12 8.0 14.5 0.00 0.00 0.00 70 1022.4
20260508000504 5 12 8.0 14.5 0.00 0.00 0.00 70 1022.4
20260508000107 5 11 9.7 16.1 0.00 0.00 0.00 69 1022.3
20260507235504 5 10 9.7 16.1 0.00 0.00 0.00 69 1022.2
20260507235004 6 14 8.0 17.7 0.00 0.00 0.00 69 1022.2
20260507234504 6 17 8.0 17.7 0.00 0.00 0.00 68 1022.1
20260507234004 6 15 9.7 17.7 0.00 0.00 0.00 68 1022.1
20260507233504 6 9 9.7 17.7 0.00 0.00 0.00 67 1022.0
20260507233004 6 6 11.3 17.7 0.00 0.00 0.00 66 1021.8
20260507232504 6 11 9.7 17.7 0.00 0.00 0.00 65 1021.7
20260507232004 6 21 8.0 17.7 0.00 0.00 0.00 64 1021.6
20260507231503 6 31 8.0 16.1 0.00 0.00 0.00 64 1021.7
20260507231004 6 34 8.0 16.1 0.00 0.00 0.00 64 1021.5
20260507230004 6 17 9.7 16.1 0.00 0.00 0.00 63 1021.4
20260507225503 6 15 9.7 17.7 0.00 0.00 0.00 63 1021.4
20260507225004 6 15 9.7 17.7 0.00 0.00 0.00 62 1021.3
20260507224504 6 13 8.0 16.1 0.00 0.00 0.00 62 1021.3
20260507224003 6 11 9.7 19.3 0.00 0.00 0.00 61 1021.2
20260507223607 6 11 11.3 19.3 0.00 0.00 0.00 62 1021.2
20260507223003 6 8 11.3 20.9 0.00 0.00 0.00 62 1021.1
20260507222503 6 8 11.3 20.9 0.00 0.00 0.00 62 1021.1
20260507222004 6 10 9.7 19.3 0.00 0.00 0.00 62 1021.1
20260507221504 6 13 9.7 16.1 0.00 0.00 0.00 62 1021.1
20260507221004 6 13 8.0 16.1 0.00 0.00 0.00 62 1021.0
20260507220503 6 8 9.7 17.7 0.00 0.00 0.00 63 1021.0
20260507220003 6 7 9.7 17.7 0.00 0.00 0.00 63 1021.0
20260507215503 6 7 11.3 17.7 0.00 0.00 0.00 64 1021.0
20260507215003 6 8 11.3 17.7 0.00 0.00 0.00 65 1020.9
20260507214503 6 7 11.3 17.7 0.00 0.00 0.00 66 1020.8
20260507214106 6 5 11.3 17.7 0.00 0.00 0.00 67 1020.7
20260507213503 6 1 14.5 22.5 0.00 0.00 0.00 68 1020.7
20260507213106 6 2 14.5 22.5 0.00 0.00 0.00 68 1020.6
20260507212503 5 3 14.5 17.7 0.00 0.00 0.00 68 1020.6
20260507212003 5 2 12.9 17.7 0.00 0.00 0.00 69 1020.5
20260507211503 5 360 12.9 17.7 0.00 0.00 0.00 70 1020.4
20260507211003 5 358 11.3 19.3 0.00 0.00 0.00 71 1020.4
20260507210504 5 356 12.9 19.3 0.00 0.00 0.00 71 1020.3
20260507210005 5 354 12.9 19.3 0.00 0.00 0.00 73 1020.2
20260507205504 5 353 12.9 19.3 0.00 0.00 0.00 74 1020.1
20260507205004 5 352 12.9 19.3 0.00 0.00 0.00 76 1020.0
20260507204607 5 353 12.9 17.7 0.00 0.00 0.00 76 1020.0
20260507204004 5 353 9.7 16.1 0.00 0.00 0.00 77 1020.0
20260507203504 6 345 11.3 17.7 0.00 0.00 0.00 77 1019.9
20260507203004 6 342 12.9 19.3 0.00 0.00 0.00 77 1019.8
20260507202504 6 342 12.9 19.3 0.00 0.00 0.00 77 1019.8
20260507202004 6 343 11.3 19.3 0.00 0.00 0.00 76 1019.8
20260507201504 6 343 11.3 17.7 0.00 0.00 0.00 75 1019.7
20260507201107 6 343 9.7 17.7 0.00 0.00 0.00 75 1019.7
20260507200504 6 343 11.3 19.3 0.00 0.00 0.00 75 1019.7
20260507200107 6 342 11.3 19.3 0.00 0.00 0.00 75 1019.6
20260507195504 6 339 11.3 17.7 0.00 0.00 0.00 75 1019.6
20260507195004 6 340 11.3 16.1 0.00 0.00 0.00 75 1019.5
20260507194503 6 340 11.3 17.7 0.00 0.00 0.00 74 1019.4
20260507194107 6 339 11.3 17.7 0.00 0.00 0.00 74 1019.3
20260507193607 6 338 9.7 17.7 0.00 0.00 0.00 73 1019.3
20260507193107 6 339 9.7 17.7 0.00 0.00 0.00 73 1019.2
20260507192504 6 341 11.3 16.1 0.00 0.00 0.00 72 1019.2
20260507192003 6 342 12.9 17.7 0.00 0.00 0.00 71 1019.2
20260507191503 6 342 14.5 22.5 0.00 0.00 0.00 70 1019.2
20260507191004 6 344 14.5 22.5 0.00 0.00 0.00 69 1019.0
20260507190607 6 345 12.9 20.9 0.00 0.00 0.00 69 1019.1
20260507190004 7 347 12.9 19.3 0.00 0.00 0.00 66 1019.0
20260507185503 7 348 14.5 20.9 0.00 0.00 0.00 64 1018.9
20260507185003 7 349 16.1 24.1 0.00 0.00 0.00 63 1018.8
20260507184504 7 350 17.7 24.1 0.00 0.00 0.00 62 1018.8
20260507184003 7 351 17.7 27.4 0.00 0.00 0.00 62 1018.9
20260507183503 7 351 17.7 27.4 0.00 0.00 0.00 61 1018.9
20260507183106 7 351 17.7 27.4 0.00 0.00 0.00 59 1018.7
20260507182503 7 353 19.3 27.4 0.00 0.00 0.00 57 1018.6
20260507182004 8 351 19.3 25.7 0.00 0.00 0.00 56 1018.6
20260507181503 8 351 19.3 25.7 0.00 0.00 0.00 54 1018.5
20260507181003 8 352 17.7 25.7 0.00 0.00 0.00 52 1018.4
20260507180606 8 351 16.1 22.5 0.00 0.00 0.00 52 1018.5
20260507180004 8 353 11.3 20.9 0.00 0.00 0.00 51 1018.4
20260507175606 9 356 11.3 19.3 0.00 0.00 0.00 51 1018.4
20260507175106 9 357 12.9 19.3 0.00 0.00 0.00 50 1018.4
20260507174503 9 357 12.9 19.3 0.00 0.00 0.00 50 1018.3
20260507174003 10 356 11.3 17.7 0.00 0.00 0.00 49 1018.3
20260507173503 10 355 12.9 20.9 0.00 0.00 0.00 50 1018.2
20260507173004 10 357 12.9 20.9 0.00 0.00 0.00 49 1018.2
20260507172503 10 1 11.3 17.7 0.00 0.00 0.00 50 1018.1
20260507172003 10 1 12.9 19.3 0.00 0.00 0.00 49 1018.0
20260507171504 10 360 14.5 20.9 0.00 0.00 0.00 49 1017.9
20260507171004 10 1 14.5 20.9 0.00 0.00 0.00 48 1017.8
20260507170504 10 1 14.5 20.9 0.00 0.00 0.00 47 1017.9
20260507170004 10 359 16.1 22.5 0.00 0.00 0.00 46 1017.9
20260507165504 11 356 17.7 25.7 0.00 0.00 0.00 45 1017.8
20260507165003 11 356 17.7 25.7 0.00 0.00 0.00 44 1017.8
20260507164504 11 356 17.7 24.1 0.00 0.00 0.00 44 1017.7
20260507164107 11 357 16.1 24.1 0.00 0.00 0.00 42 1017.8
20260507163504 11 355 17.7 24.1 0.00 0.00 0.00 43 1017.7
20260507163107 11 353 17.7 25.7 0.00 0.00 0.00 42 1017.7
20260507162504 11 354 16.1 25.7 0.00 0.00 0.00 43 1017.6
20260507162004 11 359 16.1 24.1 0.00 0.00 0.00 44 1017.6
20260507161504 11 360 17.7 24.1 0.00 0.00 0.00 42 1017.5
20260507161004 11 357 17.7 22.5 0.00 0.00 0.00 40 1017.6
20260507160504 12 1 14.5 22.5 0.00 0.00 0.00 40 1017.5
20260507160107 12 6 14.5 22.5 0.00 0.00 0.00 42 1017.5
20260507155504 11 10 14.5 25.7 0.00 0.00 0.00 43 1017.5
20260507155004 12 9 16.1 25.7 0.00 0.00 0.00 40 1017.4
20260507154504 12 4 14.5 25.7 0.00 0.00 0.00 40 1017.4
20260507154004 12 360 16.1 25.7 0.00 0.00 0.00 41 1017.2
20260507153607 12 357 17.7 25.7 0.00 0.00 0.00 41 1017.3
20260507153004 12 1 14.5 25.7 0.00 0.00 0.00 39 1017.2
20260507152503 12 4 14.5 22.5 0.00 0.00 0.00 39 1017.2
20260507152003 12 4 14.5 24.1 0.00 0.00 0.00 39 1017.1
20260507151504 12 1 14.5 24.1 0.00 0.00 0.00 39 1017.1
20260507151003 12 1 16.1 24.1 0.00 0.00 0.00 40 1017.2
20260507150503 12 9 14.5 24.1 0.00 0.00 0.00 39 1017.2
20260507150004 12 8 16.1 29.0 0.00 0.00 0.00 38 1017.1
20260507145503 13 5 17.7 29.0 0.00 0.00 0.00 40 1017.1
20260507145106 13 11 12.9 25.7 0.00 0.00 0.00 41 1017.1
20260507144503 12 49 12.9 27.4 0.00 0.00 0.00 36 1016.9
20260507144003 12 51 12.9 27.4 0.00 0.00 0.00 31 1017.0
20260507143607 12 48 11.3 25.7 0.00 0.00 0.00 29 1016.9
20260507143003 12 34 12.9 24.1 0.00 0.00 0.00 33 1017.0
20260507142606 12 41 14.5 27.4 0.00 0.00 0.00 34 1016.9
20260507142003 12 40 14.5 29.0 0.00 0.00 0.00 31 1016.9
20260507141606 12 29 12.9 29.0 0.00 0.00 0.00 32 1017.0
20260507141003 12 41 14.5 29.0 0.00 0.00 0.00 34 1016.9
20260507140503 12 50 14.5 29.0 0.00 0.00 0.00 32 1016.8
20260507140003 12 59 12.9 30.6 0.00 0.00 0.00 33 1016.7
20260507135503 12 55 12.9 30.6 0.00 0.00 0.00 33 1016.6
20260507135003 12 54 16.1 35.4 0.00 0.00 0.00 32 1016.6
20260507134503 12 56 16.1 35.4 0.00 0.00 0.00 33 1016.6
20260507134106 12 57 14.5 35.4 0.00 0.00 0.00 31 1016.6
20260507133503 12 58 16.1 32.2 0.00 0.00 0.00 35 1016.6
20260507133003 12 57 17.7 32.2 0.00 0.00 0.00 34 1016.5
20260507132503 12 57 16.1 30.6 0.00 0.00 0.00 32 1016.3
20260507132004 12 61 14.5 30.6 0.00 0.00 0.00 34 1016.4
20260507131504 12 46 14.5 30.6 0.00 0.00 0.00 33 1016.4
20260507131004 12 29 14.5 27.4 0.00 0.00 0.00 34 1016.5
20260507130504 12 27 14.5 27.4 0.00 0.00 0.00 36 1016.3
20260507130004 12 35 12.9 25.7 0.00 0.00 0.00 36 1016.3
20260507125504 12 42 14.5 27.4 0.00 0.00 0.00 35 1016.3
20260507125004 12 43 14.5 30.6 0.00 0.00 0.00 35 1016.2
20260507124504 12 49 14.5 30.6 0.00 0.00 0.00 36 1016.2
20260507124004 12 42 14.5 29.0 0.00 0.00 0.00 34 1016.3
20260507123607 13 32 14.5 29.0 0.00 0.00 0.00 36 1016.2
20260507123004 13 31 12.9 29.0 0.00 0.00 0.00 35 1016.2
20260507122607 13 36 12.9 29.0 0.00 0.00 0.00 38 1016.2
20260507122004 13 23 16.1 29.0 0.00 0.00 0.00 37 1016.1
20260507121504 13 21 16.1 27.4 0.00 0.00 0.00 41 1016.2
20260507121003 12 14 17.7 35.4 0.00 0.00 0.00 37 1016.2
20260507120504 13 12 17.7 35.4 0.00 0.00 0.00 41 1016.0
20260507120004 13 18 14.5 30.6 0.00 0.00 0.00 38 1016.2
20260507115504 12 18 16.1 30.6 0.00 0.00 0.00 39 1016.1
20260507115003 12 32 16.1 29.0 0.00 0.00 0.00 37 1016.2
20260507114504 12 41 14.5 25.7 0.00 0.00 0.00 40 1016.4
20260507114004 12 30 14.5 32.2 0.00 0.00 0.00 40 1016.3
20260507113607 12 13 16.1 32.2 0.00 0.00 0.00 42 1016.3
20260507113004 12 7 20.9 33.8 0.00 0.00 0.00 47 1016.3
20260507112606 12 8 20.9 33.8 0.00 0.00 0.00 45 1016.2
20260507112003 12 3 24.1 35.4 0.00 0.00 0.00 46 1016.3
20260507111607 12 2 22.5 35.4 0.00 0.00 0.00 47 1016.2
20260507111003 12 14 16.1 29.0 0.00 0.00 0.00 50 1016.3
20260507110503 12 22 14.5 25.7 0.00 0.00 0.00 49 1016.2